Location: Banios
(43.0451°N, 0.2335°E)
Time: 11:29:22
(UTC+00:00)

S-56A Canister/Altair - Visible Passes

Search period start: 13 May 2021 00:00
Search period end: 23 May 2021 00:00
Orbit: 631 x 2501 km, 38.9° (Epoch: 12 May)

Date Brightness Start Highest point End Pass type
(mag) Time Alt. Az. Time Alt. Az. Time Alt. Az.
13 May 9.8 21:09:22 10° W 21:21:37 42° SW 21:27:05 25° SSE visible
13 May 10.7 23:20:21 10° WSW 23:24:11 12° SW 23:24:30 12° SW visible
14 May 10.0 20:35:30 10° W 20:48:35 47° SSW 20:56:01 19° SSE visible
14 May 10.5 22:45:11 10° W 22:51:33 16° SW 22:53:25 15° SW visible
15 May 10.0 20:01:40 10° W 20:15:26 52° SSW 20:24:57 13° SE visible
15 May 10.4 22:10:37 10° W 22:18:50 20° SW 22:22:22 17° SSW visible
16 May 10.1 19:27:53 10° W 19:42:12 56° SSW 19:53:08 10° SE visible
16 May 10.4 21:36:18 10° W 21:46:02 25° SW 21:51:20 17° SSW visible
17 May 10.5 21:02:09 10° W 21:13:08 29° SW 21:20:20 15° S visible
18 May 10.6 20:28:07 10° W 20:40:09 33° SW 20:49:23 11° SSE visible
19 May 10.6 19:54:12 10° W 20:07:04 38° SW 20:17:23 10° SSE visible
19 May 11.1 22:08:32 10° WSW 22:09:49 10° WSW 22:11:04 10° SW visible
20 May 11.1 21:31:25 10° W 21:37:03 14° WSW 21:42:07 10° SSW visible
21 May 11.0 20:56:20 10° W 21:04:11 17° SW 21:11:06 10° SSW visible
22 May 11.0 20:21:46 10° W 20:31:15 21° SW 20:39:32 10° S visible
